Time,B instrument,Bx,By,Bz,sigma B,Ion instrument,Status,Tp_par,Tp_perp,carrot,r_sun,clat,clong,earth_he_angle,n_p,vp_x,vp_y,vp_z,vth_p_par,vth_p_perp
1980-10-13 00:05:36,-1,nan,nan,nan,nan,1,3,nan,nan,1700,0.84068936,-4.0970364,218.83057,90.666504,nan,375.944,36.4918,1.10306,nan,nan
1980-10-13 00:16:24,-1,nan,nan,nan,nan,1,3,nan,nan,1700,0.8406356,-4.0977955,218.72874,90.666245,nan,375.266,44.8918,-4.08419,nan,nan
1980-10-13 00:27:12,-1,nan,nan,nan,nan,1,3,nan,nan,1700,0.84058183,-4.0985546,218.63084,90.666,nan,376.345,40.1429,3.64975,nan,nan
1980-10-13 00:38:00,-1,nan,nan,nan,nan,1,3,nan,nan,1700,0.84052801,-4.0993128,218.53293,90.665741,nan,374.631,40.6838,6.84631,nan,nan
1980-10-13 00:48:48,-1,nan,nan,nan,nan,1,3,nan,nan,1700,0.84047914,-4.1000032,218.43114,90.665512,nan,375.245,24.562,10.1926,nan,nan
1980-10-13 00:59:36,-1,nan,nan,nan,nan,1,3,nan,nan,1700,0.84042537,-4.1007614,218.33322,90.665253,nan,373.107,22.0732,-4.60191,nan,nan
1980-10-13 01:10:24,-1,nan,nan,nan,nan,1,3,nan,nan,1700,0.84037149,-4.1015215,218.23532,90.665009,nan,373.876,16.9077,-4.67773,nan,nan
1980-10-13 01:21:12,-1,nan,nan,nan,nan,1,3,nan,nan,1700,0.84031767,-4.1022806,218.13742,90.664764,nan,367.49,26.2241,-22.507,nan,nan
1980-10-13 01:32:00,-1,nan,nan,nan,nan,1,3,nan,nan,1700,0.84026384,-4.1030397,218.03561,90.66452,nan,372.651,9.3021,-28.8923,nan,nan
1980-10-13 01:42:48,-1,nan,nan,nan,nan,1,3,nan,nan,1700,0.84021491,-4.1037302,217.93773,90.664291,nan,371.418,20.7677,-16.9661,nan,nan
1980-10-13 01:53:36,-1,nan,nan,nan,nan,1,3,nan,nan,1700,0.84016103,-4.1044903,217.83983,90.664047,nan,376.891,12.904,-4.43476,nan,nan
1980-10-13 02:04:24,-1,nan,nan,nan,nan,1,3,nan,nan,1700,0.8401072,-4.1052494,217.73802,90.663803,nan,372.919,7.42592,-31.1745,nan,nan
1980-10-13 02:15:12,-1,nan,nan,nan,nan,1,3,nan,nan,1700,0.84005332,-4.1060085,217.64012,90.663559,nan,380.596,7.54415,-24.5678,nan,nan
1980-10-13 02:26:00,-1,nan,nan,nan,nan,1,3,nan,nan,1700,0.83999938,-4.1067667,217.54222,90.663315,nan,384.303,14.1314,-25.1962,nan,nan
1980-10-13 02:30:40,-1,nan,nan,nan,nan,1,4,nan,nan,1700,0.83997983,-4.1070433,217.49916,90.663223,nan,nan,nan,nan,nan,nan
1980-10-13 02:36:48,-1,nan,nan,nan,nan,1,3,nan,nan,1700,0.83995038,-4.1074572,217.44043,90.663086,nan,379.216,5.35975,-22.4493,nan,nan
1980-10-13 02:41:28,-1,nan,nan,nan,nan,1,3,nan,nan,1700,0.84099305,-4.3588605,217.17548,90.441101,nan,379.215,5.36041,-22.4493,nan,nan
1980-10-13 02:47:28,1,-6.7,10.4,-4.85,0.33541,1,1,90025.9,109079.0,1700,0.8398965,-4.1082153,217.34253,90.662842,25.1245,381.658,17.8119,-21.4598,38.5515,42.4354
1980-10-13 02:58:24,1,-8.05,8.45,-4.5,0.254951,1,1,83828.7,114795.0,1700,0.83984262,-4.1089745,217.24463,90.662598,24.079,375.527,17.5128,-16.7227,37.201,43.533
1980-10-13 03:20:45,1,-5.41429,10.0714,7.68571,2.15113,1,1,142072.0,130270.0,1700,0.83973473,-4.1104937,217.03712,90.662125,14.0089,387.633,15.8011,12.3554,48.4297,46.3746
1980-10-13 03:22:06,1,-3.04286,9.78571,9.11429,0.795908,1,1,179646.0,133188.0,1700,0.8397249,-4.110631,217.02536,90.662079,15.6484,386.129,16.0248,9.72007,54.4587,46.8912
1980-10-13 03:23:27,1,-4.28571,9.6,7.87143,2.12142,1,1,156142.0,132529.0,1700,0.83972001,-4.1107006,217.01363,90.662064,14.766,389.638,17.6631,6.74546,50.7713,46.7749
1980-10-13 03:23:56,1,-3.74286,9.18571,8.68571,0.552176,1,1,191395.0,147935.0,1700,0.83972001,-4.1107006,217.00972,90.662064,16.1113,394.391,8.89796,8.81964,56.2113,49.4189
1980-10-13 03:25:17,1,-3.6125,9.525,9.4875,1.39609,1,1,116774.0,134519.0,1700,0.83971018,-4.1108389,216.99796,90.662018,13.8217,385.268,18.6857,3.51952,43.9067,47.1248
1980-10-13 03:26:38,1,-4.3125,9.7125,8.3375,0.910786,1,1,153917.0,135718.0,1700,0.83970529,-4.1109076,216.98232,90.662003,14.3611,386.437,17.2707,1.63749,50.4083,47.3343
1980-10-13 03:27:59,1,-3.125,7.95,10.7,0.81968,1,1,151481.0,143848.0,1700,0.8397004,-4.1109762,216.97057,90.661972,15.9183,389.58,17.3652,5.04527,50.0077,48.7315
1980-10-13 03:29:20,1,-2.5125,7.325,11.85,0.357727,1,1,205299.0,158999.0,1700,0.83969057,-4.1111145,216.9588,90.661926,17.6232,391.305,10.2511,5.80067,58.2172,51.2335
1980-10-13 03:30:41,1,-2.075,5.9125,14.1875,0.794709,1,1,128262.0,136467.0,1700,0.83968568,-4.1111841,216.94707,90.661911,13.3948,390.705,14.177,7.94547,46.0158,47.4648
1980-10-13 03:32:02,1,-3.3375,6.875,12.1875,0.724784,1,1,182024.0,158296.0,1700,0.83967584,-4.1113214,216.9353,90.661865,16.2243,390.44,11.3091,0.203638,54.8179,51.1203
1980-10-13 03:33:23,1,-4.15,7.0375,12.15,0.636273,1,1,165237.0,135830.0,1700,0.83967096,-4.1113911,216.92357,90.66185,14.1634,393.399,12.7844,1.77504,52.229,47.354
1980-10-13 03:34:44,1,-3.875,7.9375,11.8,0.326678,1,1,149834.0,156508.0,1700,0.83966607,-4.1114597,216.90791,90.661819,15.4659,388.272,12.3124,4.2569,49.7351,50.8308
1980-10-13 03:36:05,1,-3.2,6.8,12.25,0.479583,1,1,177575.0,131244.0,1700,0.83965623,-4.111598,216.89616,90.661789,15.2225,390.854,9.85547,2.14487,54.1438,46.5477
1980-10-13 03:37:26,1,-4.15,7.15,12.85,0.409268,1,1,154205.0,154128.0,1700,0.83965135,-4.1116667,216.88441,90.661758,15.4656,386.997,13.0742,7.83715,50.4553,50.4428
1980-10-13 03:38:47,1,-5.3875,8.2,11.25,0.416646,1,1,169824.0,143851.0,1700,0.83964646,-4.1117363,216.87268,90.661743,15.8423,387.72,16.1272,4.21977,52.949,48.7321
1980-10-13 03:40:08,1,-2.3125,7.6125,13.125,0.52351,1,1,136714.0,153811.0,1700,0.83963662,-4.1118746,216.86092,90.661697,15.7115,385.405,17.0979,6.97448,47.5078,50.3908
1980-10-13 03:41:29,1,-3.1625,8.4625,11.8875,1.09352,1,1,137293.0,137590.0,1700,0.83963174,-4.1119432,216.84917,90.661667,14.8688,391.277,15.9929,4.46803,47.6082,47.6597
1980-10-13 03:42:50,1,-5.625,9.6375,9.1,0.35947,1,1,171754.0,146860.0,1700,0.83962685,-4.1120119,216.83353,90.661652,15.6276,388.372,16.3015,3.03706,53.249,49.2391
1980-10-13 03:44:11,1,-6.84286,10.8143,7.74286,0.711423,1,1,137530.0,132288.0,1700,0.83961701,-4.1121502,216.82176,90.661606,14.3505,386.963,13.8977,0.484792,47.6493,46.7325
1980-10-13 03:45:32,1,-5.9625,9.9625,8.6625,0.290743,1,1,165646.0,155117.0,1700,0.83961213,-4.1122198,216.81003,90.661591,15.4108,386.775,13.6233,1.29906,52.2936,50.6044
1980-10-13 03:46:53,1,-5.75714,9.74286,9.12857,0.633423,1,1,126867.0,133147.0,1700,0.83960718,-4.1122885,216.79828,90.66156,15.3198,386.755,15.732,-0.806045,45.7649,46.8839
1980-10-13 03:48:14,1,-6.1375,10.4875,7.7,0.317707,1,1,162395.0,168092.0,1700,0.8395974,-4.1124268,216.78653,90.66153,17.3716,388.893,11.1015,-3.25273,51.7779,52.6783
1980-10-13 03:49:35,1,-7.825,10.175,2.75,1.70331,1,1,154461.0,135221.0,1700,0.83959252,-4.1124954,216.77478,90.661499,15.5757,387.081,14.8927,-11.2824,50.4972,47.2476
1980-10-13 03:50:56,1,-8.0625,10.0625,3.6125,1.8448,1,1,158106.0,155255.0,1700,0.83958757,-4.112565,216.75914,90.661484,17.2859,387.589,13.6477,-9.85229,51.0896,50.6268
1980-10-13 03:52:17,1,-8.01429,10.6429,4.38571,0.384389,1,1,133347.0,127594.0,1700,0.83957779,-4.1127024,216.74738,90.661438,14.9149,389.319,18.4106,-6.18109,46.9191,45.8957
1980-10-13 03:53:38,1,-8.0125,10.35,6.25,0.30999,1,1,129508.0,147697.0,1700,0.83957285,-4.112772,216.73563,90.661407,16.0827,391.149,19.056,-4.25806,46.2387,49.3792
1980-10-13 03:54:59,1,-8.55,10.2,3.8625,0.51463,1,1,142111.0,142624.0,1700,0.83956796,-4.1128407,216.72389,90.661392,16.1004,390.69,17.4057,-7.86143,48.4365,48.5238
1980-10-13 03:56:20,1,-8.7,10.575,1.65,0.268095,1,1,137251.0,159842.0,1700,0.83955818,-4.1129789,216.71213,90.661346,16.9368,391.094,13.4954,-6.44873,47.6009,51.3692
1980-10-13 03:57:41,1,-8.04286,10.6143,2.54286,0.411071,1,1,125602.0,144130.0,1700,0.83955324,-4.1130476,216.70039,90.661331,16.2689,388.381,15.0891,-7.03645,45.5362,48.7793
1980-10-13 03:59:02,1,-10.5375,4.5,-8.7,0.6981,1,1,83995.1,174159.0,1700,0.83954346,-4.1131859,216.68472,90.661285,15.2403,394.141,14.5661,-5.82551,37.2379,53.6206
1980-10-13 04:00:23,1,-9.62857,2.47143,-10.4286,0.540219,1,1,82069.0,182423.0,1700,0.83953857,-4.1132555,216.67299,90.66127,14.919,391.606,19.2558,-2.8994,36.8085,54.8779
1980-10-13 04:01:44,1,-7.8125,1.075,-11.15,0.703895,1,1,106092.0,185335.0,1700,0.83953363,-4.1133242,216.66124,90.66124,15.2059,391.628,19.1289,-7.38891,41.8503,55.3141
1980-10-13 04:03:05,1,-6.98571,-1.8,-12.8,0.605755,1,1,127281.0,174518.0,1700,0.83952379,-4.1134624,216.64948,90.661194,15.8882,392.076,15.3532,-8.26112,45.8395,53.6757
1980-10-13 04:04:26,1,-4.6875,-3.85,-12.8125,0.828968,1,1,108847.0,159653.0,1700,0.8395189,-4.1135311,216.63774,90.661179,15.178,392.73,12.3637,-12.8336,42.3902,51.3389
1980-10-13 04:05:47,1,-7.9625,1.275,-11.0375,0.893903,1,1,138403.0,195174.0,1700,0.83951402,-4.1136007,216.62601,90.661163,18.2688,395.173,21.0308,0.103513,47.8003,56.7635
1980-10-13 04:07:08,1,-11.35,5.025,-6.6125,0.676734,1,1,162517.0,196650.0,1700,0.83950418,-4.113739,216.61034,90.661118,19.6658,391.359,20.9202,14.8898,51.7973,56.9776
1980-10-13 04:08:29,1,-11.0286,2.35714,-8.45714,0.499796,1,1,153999.0,201697.0,1700,0.83949924,-4.1138077,216.59859,90.661087,18.1583,389.568,31.1034,17.1196,50.4217,57.7043
1980-10-13 04:09:50,1,-11.025,4.6125,-6.8125,0.749375,1,1,208131.0,202603.0,1700,0.83949435,-4.1138773,216.58685,90.661072,20.0535,390.359,21.1503,13.8075,58.6174,57.8336
1980-10-13 05:21:57,-1,nan,nan,nan,nan,1,3,nan,nan,1700,0.83914065,-4.1188507,215.92517,90.659546,nan,438.09,-7.56847,16.8441,nan,nan
1980-10-13 05:23:18,1,-1.1625,5.8625,20.9,0.744773,1,1,116250.0,184002.0,1700,0.83913082,-4.118989,215.91342,90.659515,18.8019,446.349,-11.8288,27.9351,43.808,55.115
1980-10-13 05:24:39,1,-1.72222,5.85556,20.2222,1.76425,1,1,113206.0,159778.0,1700,0.83912593,-4.1190577,215.90167,90.659485,17.3811,437.919,-2.19743,28.4279,43.2307,51.3589
1980-10-13 05:26:00,1,-0.95,3.6875,15.0375,1.71127,1,1,248538.0,211607.0,1700,0.8391161,-4.1191959,215.886,90.659439,29.6011,436.928,-17.2795,9.47581,64.0552,59.1049
1980-10-13 05:27:21,1,1.31111,5.98889,14.2222,1.09612,1,1,241756.0,212889.0,1700,0.83911115,-4.1192646,215.87427,90.659424,28.5534,447.154,-19.7555,7.2762,63.1752,59.2835
1980-10-13 05:31:25,1,-8.41111,5.08889,3.0,2.28419,1,1,313183.0,201105.0,1700,0.83909643,-4.1194725,215.83905,90.659363,36.3855,431.837,-15.6464,-0.53667,71.9046,57.6194
1980-10-13 05:31:33,1,-6.93333,4.45556,4.36667,3.33204,1,1,190775.0,172259.0,1700,0.83909154,-4.1195412,215.83513,90.659348,35.6942,443.714,-10.0652,20.1703,56.1201,53.3272
1980-10-13 05:32:47,1,0.466667,-2.54444,7.88889,1.41072,1,1,210282.0,220376.0,1700,0.84015524,-4.3703165,215.60519,90.437225,43.3023,457.513,-20.0354,33.3944,58.9195,60.3171
1980-10-13 05:32:54,1,0.4625,-2.8375,7.7125,1.20241,1,1,201303.0,220151.0,1700,0.83908659,-4.1196098,215.82338,90.659317,38.7162,446.104,-13.7105,25.0121,57.6479,60.2862
1980-10-13 05:34:08,1,1.0875,-2.725,8.15,2.82718,1,1,216444.0,214917.0,1700,0.83907676,-4.1197481,215.81163,90.659286,43.7039,461.774,-19.2443,32.8277,59.7766,59.5653
1980-10-13 05:35:29,1,8.44444,-10.7889,7.84444,1.55182,1,1,236199.0,204110.0,1700,0.83907187,-4.1198177,215.79988,90.659256,38.909,448.096,-1.74146,43.4155,62.4449,58.0484
1980-10-13 05:36:50,1,7.78889,-7.55556,13.6667,1.38288,1,1,198108.0,177022.0,1700,0.83906692,-4.1198864,215.78815,90.659241,38.2622,451.001,-13.6096,28.1572,57.1886,54.0595
1980-10-13 05:38:11,1,9.2625,-8.7,14.75,0.706996,1,1,311601.0,170197.0,1700,0.83905709,-4.1200247,215.77638,90.659195,29.3078,438.957,-13.5023,16.3385,71.7228,53.0071
1980-10-13 05:39:32,1,9.025,-9.7125,15.5,0.480072,1,1,201489.0,172507.0,1700,0.8390522,-4.1200933,215.76465,90.65918,26.004,432.181,-6.01549,8.69603,57.6744,53.3656
1980-10-13 05:40:53,1,9.9875,-11.025,14.15,0.485251,1,1,205585.0,181038.0,1700,0.83904725,-4.120163,215.75291,90.659164,25.8064,432.44,-3.40122,11.26,58.2578,54.6692
1980-10-13 05:42:14,1,9.925,-11.6875,13.6,0.30898,1,1,207114.0,182546.0,1700,0.83903742,-4.1203003,215.73724,90.659119,25.6626,432.413,-0.600856,12.5811,58.4739,54.8964
1980-10-13 05:43:35,1,10.3875,-12.2125,13.45,0.307713,1,1,234603.0,170411.0,1700,0.83903253,-4.1203699,215.72551,90.659103,28.2403,430.804,-1.77685,14.0421,62.2336,53.0404
1980-10-13 05:44:56,1,7.5875,-9.8875,12.975,0.537645,1,1,212792.0,172536.0,1700,0.83902758,-4.1204386,215.71376,90.659073,37.8429,452.106,-14.4302,26.5406,59.2701,53.37
1980-10-13 05:46:17,1,7.42222,-9.93333,11.6778,0.636929,1,1,215566.0,178850.0,1700,0.83901775,-4.1205769,215.702,90.659027,39.0803,450.633,-11.3062,27.4932,59.6551,54.3379
1980-10-13 05:47:38,1,8.56667,-11.7556,12.7444,1.86143,1,1,298826.0,165459.0,1700,0.83901286,-4.1206455,215.69026,90.659012,34.3432,452.087,-6.48147,23.5892,70.2372,52.2641
1980-10-13 05:48:59,1,10.6375,-13.9375,10.2875,0.853394,1,1,211134.0,171557.0,1700,0.83900791,-4.1207151,215.67853,90.658997,26.0762,433.322,10.2005,24.2586,59.0388,53.2185
1980-10-13 05:50:20,1,8.375,-14.6,8.8125,1.23712,1,1,129019.0,223473.0,1700,0.83899808,-4.1208534,215.66286,90.658951,25.3892,445.579,8.44001,31.4189,46.1514,60.7393
1980-10-13 05:51:41,1,8.8125,-15.4,8.25,2.62842,1,1,176486.0,201588.0,1700,0.83899319,-4.1209221,215.65112,90.658936,27.449,437.625,20.2025,38.6788,53.9775,57.6887
1980-10-13 05:53:02,1,8.375,-9.3375,16.65,0.590947,1,1,170647.0,179500.0,1700,0.83898336,-4.1210604,215.63936,90.65889,24.3801,430.795,3.25795,-3.32176,53.077,54.4365
1980-10-13 05:54:23,1,9.175,-12.75,14.875,2.74886,1,1,157192.0,175105.0,1700,0.83897841,-4.121129,215.62762,90.658875,22.4402,434.048,14.1474,10.062,50.9416,53.7659
1980-10-13 05:55:44,1,10.3625,-14.3375,12.4,0.492125,1,1,138774.0,186109.0,1700,0.83897352,-4.1211987,215.61588,90.658844,23.0488,431.735,9.45449,14.6672,47.8644,55.4296
1980-10-13 05:57:05,1,11.2875,-11.6875,13.7,1.47638,1,1,149082.0,181725.0,1700,0.83896369,-4.121336,215.60413,90.658813,23.7122,429.384,4.9955,12.1869,49.6102,54.7728
1980-10-13 05:58:26,1,11.6143,-15.6571,5.14286,1.34073,1,1,163647.0,175329.0,1700,0.83895874,-4.1214056,215.58847,90.658783,23.9189,428.271,13.0631,29.1208,51.977,53.8002
1980-10-13 05:59:47,1,10.7375,-16.7875,4.8125,2.35256,1,1,180857.0,182726.0,1700,0.83895385,-4.1214743,215.57674,90.658768,23.8046,433.695,18.6395,45.2905,54.6419,54.9235
1980-10-13 06:01:08,1,11.5714,-14.1286,13.7,1.03844,1,1,169928.0,190947.0,1700,0.83894402,-4.1216125,215.56497,90.658722,22.1286,424.935,-3.21852,0.54455,52.9651,56.1454
1980-10-13 06:02:29,1,12.65,-15.1125,13.3875,0.587101,1,1,111229.0,187588.0,1700,0.83893907,-4.1216812,215.55324,90.658707,16.041,426.081,5.29799,10.2564,42.8516,55.6494
1980-10-13 06:03:50,1,12.5125,-17.15,8.7,1.36697,1,1,125408.0,171984.0,1700,0.83893418,-4.1217508,215.5415,90.658691,18.258,436.055,14.7769,22.9389,45.5009,53.2847
1980-10-13 06:05:11,1,12.7375,-15.6125,11.6875,0.861412,1,1,121803.0,206311.0,1700,0.83892435,-4.1218891,215.52974,90.658646,15.563,430.2,8.42234,4.02924,44.8421,58.3605
1980-10-13 06:06:32,1,10.4,-17.2625,6.075,1.76684,1,1,314758.0,221182.0,1700,0.8389194,-4.1219578,215.5141,90.65863,21.4953,420.094,6.03343,-19.6677,72.0853,60.4273
1980-10-13 06:07:53,1,10.2,-18.6375,2.1375,0.776007,1,1,184119.0,212183.0,1700,0.83891451,-4.1220274,215.50235,90.6586,16.9725,413.609,11.4892,-8.73317,55.1324,59.1852
1980-10-13 06:09:14,1,8.85,-18.8,1.55,0.308221,1,1,166917.0,226611.0,1700,0.83890468,-4.1221657,215.4906,90.658569,18.7644,424.707,23.7938,9.06881,52.4939,61.1644
1980-10-13 06:10:35,1,7.8,-18.9778,-0.0111111,1.62154,1,1,202600.0,227111.0,1700,0.83889973,-4.1222343,215.47885,90.658539,20.2449,425.583,23.5457,12.4856,57.8332,61.2317
1980-10-13 06:11:56,1,13.875,-17.2,6.575,0.737394,1,1,94528.7,210453.0,1700,0.83889478,-4.122304,215.46712,90.658524,14.944,419.715,12.8106,-1.7647,39.5039,58.9434
1980-10-13 06:13:17,1,12.4625,-14.775,8.225,1.02645,1,1,160713.0,236528.0,1700,0.83888495,-4.1224413,215.45535,90.658478,15.9167,428.086,21.4299,19.9649,51.5091,62.4884
1980-10-13 06:14:38,1,10.025,-16.475,-1.225,2.60204,1,1,205787.0,237922.0,1700,0.83888006,-4.1225109,215.43971,90.658463,16.9447,390.402,24.593,-46.4872,58.2863,62.6723
1980-10-13 06:15:59,1,3.2,-16.3125,-9.4,2.43744,1,1,222073.0,257037.0,1700,0.83887511,-4.1225796,215.42798,90.658447,16.3985,440.622,21.4632,6.78642,60.5488,65.1412
1980-10-13 06:17:20,1,2.675,-15.725,-13.8375,0.362069,1,1,127148.0,243450.0,1700,0.83886528,-4.1227179,215.41621,90.658401,17.2324,424.764,27.7649,12.3063,45.8155,63.3961
1980-10-13 06:18:41,1,2.225,-15.225,-13.7,0.410792,1,1,120001.0,257643.0,1700,0.83886039,-4.1227875,215.40448,90.658386,17.6716,420.22,24.1513,10.8869,44.5093,65.2179
1980-10-13 06:20:02,1,3.35,-14.75,-14.5125,0.388708,1,1,116195.0,237477.0,1700,0.83885056,-4.1229258,215.39272,90.65834,16.7259,420.587,23.038,10.83,43.7978,62.6136
1980-10-13 06:21:23,1,4.62222,-18.8889,-11.2444,1.00701,1,1,154337.0,263799.0,1700,0.83884561,-4.1229944,215.38098,90.658325,15.5697,425.426,11.968,10.5731,50.4769,65.9925
1980-10-13 06:22:44,1,4.3625,-21.2375,-9.2,0.878742,1,1,137311.0,208365.0,1700,0.83884066,-4.1230631,215.36533,90.658295,14.1964,424.026,13.8034,3.84369,47.6114,58.6503
1980-10-13 06:24:05,1,-2.4625,-21.025,-5.7125,3.75903,1,1,195531.0,192089.0,1700,0.83883083,-4.1232014,215.35358,90.658264,13.9136,429.893,14.9008,12.8604,56.8153,56.3131
1980-10-13 06:25:26,1,-0.6125,-20.9,-2.4,1.70032,1,1,183287.0,251113.0,1700,0.83882594,-4.123271,215.34183,90.658234,15.2463,411.453,15.8905,17.2682,55.0078,64.3862
1980-10-13 06:26:47,1,4.2,-20.3625,-5.3125,1.0913,1,1,195643.0,202151.0,1700,0.83882099,-4.1233397,215.33009,90.658218,15.9654,425.842,21.1873,16.3538,56.8316,57.7691
1980-10-13 06:28:08,1,6.675,-17.2375,-9.9375,1.51296,1,1,143495.0,231464.0,1700,0.83881116,-4.1234779,215.31833,90.658173,14.7814,426.591,23.1914,16.597,48.6717,61.8158
1980-10-13 06:29:29,1,8.4,-18.45,4.125,2.80078,1,1,215040.0,271910.0,1700,0.83880627,-4.1235476,215.30659,90.658157,17.2831,433.631,23.6188,30.5971,59.5823,66.9993
1980-10-13 06:30:50,1,8.2375,-19.7375,1.7375,0.840852,1,1,143302.0,254860.0,1700,0.83880132,-4.1236162,215.29095,90.658142,17.4634,434.174,11.3739,11.7,48.639,64.8648
1980-10-13 06:32:11,1,6.32222,-19.0,6.06667,2.34273,1,1,163730.0,240344.0,1700,0.83879149,-4.1237545,215.27919,90.658096,19.5258,432.916,2.37722,0.789791,51.9902,62.9905
1980-10-13 06:33:32,1,4.36667,-20.2889,7.21111,1.34155,1,1,169520.0,263053.0,1700,0.83878654,-4.1238232,215.26746,90.658081,19.0185,449.536,5.72993,-10.6627,52.9016,65.8991
1980-10-13 06:34:53,1,5.88889,-19.4222,6.06667,1.15876,1,1,156025.0,267762.0,1700,0.83878165,-4.1238928,215.25571,90.658051,19.1187,445.53,9.60869,-18.6964,50.7522,66.4864
1980-10-13 06:36:14,1,3.975,-19.725,7.725,0.321131,1,1,181673.0,248101.0,1700,0.83877182,-4.1240311,215.24396,90.65802,17.3028,445.956,7.8826,-21.0635,54.765,63.9988
1980-10-13 06:37:35,1,4.26667,-20.0444,5.81111,0.891385,1,1,202507.0,233671.0,1700,0.83876687,-4.1240997,215.23221,90.65799,18.4268,445.502,2.8433,-16.1371,57.82,62.1098
1980-10-13 06:38:56,1,1.875,-19.1,10.725,1.75392,1,1,193322.0,258992.0,1700,0.83876199,-4.1241693,215.21657,90.657974,18.2591,444.33,5.66441,-9.86417,56.4934,65.3885
1980-10-13 06:40:17,1,3.52222,-19.6556,8.84444,0.705534,1,1,214849.0,261856.0,1700,0.83875215,-4.1243076,215.2048,90.657928,17.7242,441.147,6.45377,-11.0856,59.5558,65.7489
1980-10-13 06:41:38,1,4.15,-19.0125,8.5125,0.848344,1,1,224401.0,252331.0,1700,0.8387472,-4.1243763,215.19307,90.657913,18.3681,444.368,7.78352,0.666666,60.8653,64.5421
1980-10-13 06:42:59,1,7.4125,-19.2125,4.3375,0.681565,1,1,173402.0,254778.0,1700,0.83874226,-4.124445,215.18134,90.657898,18.5516,432.464,4.28937,-2.38585,53.5038,64.8543
1980-10-13 06:44:20,1,6.8625,-18.85,3.425,0.960062,1,1,172554.0,276053.0,1700,0.83873242,-4.1245832,215.16957,90.657852,19.4671,435.188,4.30235,4.35788,53.3729,67.5079
1980-10-13 06:45:41,1,6.65556,-18.6,4.13333,0.588994,1,1,170732.0,224674.0,1700,0.83872753,-4.1246529,215.15784,90.657837,17.7024,437.249,5.54238,-6.74722,53.0904,60.9023
1980-10-13 06:47:02,1,5.575,-18.7625,6.0125,1.01627,1,1,174103.0,261658.0,1700,0.8387177,-4.1247911,215.14217,90.657791,18.7603,438.51,4.144,-6.31763,53.6118,65.7242
1980-10-13 06:48:23,1,4.325,-19.2875,7.025,1.22162,1,1,182812.0,257252.0,1700,0.83871275,-4.1248598,215.13043,90.657776,18.2921,435.528,4.19711,-6.87509,54.9364,65.1685
1980-10-13 06:49:44,1,9.8,-17.15,-2.5125,1.35963,1,1,141317.0,290429.0,1700,0.83870786,-4.1249294,215.11868,90.657745,16.2181,427.941,0.399459,22.4081,48.3009,69.2433
1980-10-13 06:51:05,1,7.93333,-18.7111,1.92222,0.982313,1,1,166872.0,262066.0,1700,0.83869803,-4.1250668,215.10693,90.657715,17.9139,433.637,1.61289,7.14275,52.4868,65.7753
1980-10-13 06:52:26,1,7.8625,-19.2,2.45,0.373957,1,1,153528.0,273530.0,1700,0.83869308,-4.1251364,215.09518,90.657684,16.5977,435.196,3.0222,10.212,50.3445,67.1987
1980-10-13 06:53:47,1,6.43333,-18.3333,6.3,2.38374,1,1,202388.0,271586.0,1700,0.83868814,-4.125205,215.08345,90.657669,18.4023,437.104,-4.08708,-10.8325,57.8029,66.9594
1980-10-13 06:55:08,1,4.8375,-19.0,6.95,0.672565,1,1,165187.0,265595.0,1700,0.8386783,-4.1253433,215.06778,90.657623,17.3867,442.066,8.84111,-8.77843,52.2211,66.2167
1980-10-13 06:56:29,1,3.55,-19.9625,3.85,0.653715,1,1,215091.0,283516.0,1700,0.83867341,-4.1254129,215.05605,90.657608,17.7453,437.547,4.34254,-2.0229,59.5894,68.4143
1980-10-13 06:57:50,1,4.9125,-18.475,5.65,0.50296,1,1,199222.0,265064.0,1700,0.83866847,-4.1254816,215.04431,90.657593,18.9258,437.102,1.52232,-8.13423,57.3491,66.1505
1980-10-13 06:59:11,1,5.14444,-16.4111,11.1333,0.8763,1,1,262593.0,249184.0,1700,0.83865863,-4.1256199,215.03255,90.657547,19.487,433.196,3.28826,-5.56811,65.8415,64.1384
1980-10-13 07:00:32,-1,nan,nan,nan,nan,1,3,nan,nan,1700,0.83865374,-4.1256895,215.02081,90.657532,nan,438.242,-4.48486,-3.69742,nan,nan
1980-10-13 07:01:53,-1,nan,nan,nan,nan,1,3,nan,nan,1700,0.8386488,-4.1257582,215.00906,90.657501,nan,432.745,-4.03484,-13.4182,nan,nan
1980-10-13 07:05:56,-1,nan,nan,nan,nan,1,3,nan,nan,1700,0.83862907,-4.1260347,214.96992,90.657425,nan,439.388,-10.4708,-13.1837,nan,nan
1980-10-13 07:07:17,-1,nan,nan,nan,nan,1,3,nan,nan,1700,0.83861923,-4.126173,214.95816,90.657379,nan,437.567,-14.1828,-12.6763,nan,nan
1980-10-13 07:08:38,-1,nan,nan,nan,nan,1,3,nan,nan,1700,0.83861428,-4.1262417,214.94643,90.657364,nan,434.797,-18.7833,-11.7485,nan,nan
1980-10-13 07:09:59,-1,nan,nan,nan,nan,1,3,nan,nan,1700,0.8386094,-4.1263113,214.93469,90.657349,nan,434.55,-14.6143,-9.29229,nan,nan
1980-10-13 07:11:20,1,5.6875,-8.525,17.6125,1.21617,1,1,173184.0,256373.0,1700,0.8385995,-4.1264496,214.91902,90.657303,15.1832,435.397,-15.4255,-7.11327,53.4702,65.057
1980-10-13 07:12:41,1,5.38889,-6.45556,17.5778,1.85492,1,1,176228.0,293564.0,1700,0.83859462,-4.1265182,214.90729,90.657288,14.6814,431.801,-16.256,-7.41886,53.9381,69.616
1980-10-13 07:14:02,1,5.0625,-6.675,17.2875,1.22793,1,1,212144.0,283253.0,1700,0.83858472,-4.1266565,214.89552,90.657242,14.8156,439.171,-19.0876,-5.75853,59.1797,68.3825
1980-10-13 07:15:23,1,4.075,-6.475,17.5375,2.47459,1,1,219673.0,247649.0,1700,0.83857983,-4.1267262,214.88379,90.657227,14.8401,439.165,-20.929,-5.56326,60.2207,63.9405
1980-10-13 07:16:44,1,3.0375,-13.175,16.3,0.762705,1,1,145703.0,264947.0,1700,0.83857489,-4.1267948,214.87206,90.657211,13.9523,441.613,-18.4438,-4.1708,49.0446,66.1359
1980-10-13 07:18:05,1,5.1625,-11.525,16.5,0.558318,1,1,109451.0,241395.0,1700,0.83856505,-4.1269331,214.86029,90.657166,13.2983,432.901,-14.2329,-7.40081,42.5077,63.128
1980-10-13 07:19:26,1,5.45,-11.3625,16.8625,0.591344,1,1,115876.0,222203.0,1700,0.8385601,-4.1270018,214.84465,90.65715,12.4714,437.779,-15.5717,-1.06868,43.7376,60.5665
1980-10-13 07:20:47,1,6.34444,-10.6778,16.7778,0.351715,1,1,109256.0,232279.0,1700,0.83855516,-4.1270714,214.83292,90.657135,11.9573,437.374,-12.2866,-1.87016,42.4698,61.9246
1980-10-13 07:22:08,1,5.65,-10.15,16.9,0.471699,1,1,151016.0,231879.0,1700,0.83854532,-4.1272097,214.82115,90.657089,13.7539,435.273,-9.81682,-4.42185,49.9309,61.8712
1980-10-13 07:23:29,1,6.0375,-10.0625,16.475,0.504046,1,1,123651.0,241314.0,1700,0.83854043,-4.1272783,214.80942,90.657074,13.5325,429.274,-11.7949,-6.21352,45.1811,63.1174